Weather History for Logan, UT

Change the Weather History Date:

Wednesday, January 15, 2014

  Actual Average Record
Temperature  
Mean Temperature 18 °F -  
Max Temperature 28 °F 32 °F 50 °F (2012)
Min Temperature 9 °F 15 °F -18 °F (1964)
Degree Days  
Heating Degree Days 46    
Moisture  
Dew Point 13 °F    
Average Humidity 83    
Maximum Humidity 92    
Minimum Humidity 75    
Precipitation  
Precipitation 0.00 in - - ()
Sea Level Pressure  
Sea Level Pressure 30.61 in    
Wind  
Wind Speed 2 mph (NW)    
Max Wind Speed 6 mph    
Max Gust Speed -    
Visibility 3 miles    
Events Fog    
Averages and records for this station are not official NWS values.
T = Trace of Precipitation, MM = Missing Value Source: NWS Daily Summary

Daily Weather History Graph

Daily Weather History Graph

Search for Another Location

Airport:

Trip Planner

Search our weather history database for the weather conditions in past years. The results will help you decide how hot, cold, wet, or windy it might be!

Date:

Astronomy

Jan. 15, 2014 Rise Set
Actual Time 7:52 AM MST 5:21 PM MST
Civil Twilight 7:21 AM MST 5:52 PM MST
Nautical Twilight 6:47 AM MST 6:26 PM MST
Astronomical Twilight 6:13 AM MST 7:00 PM MST
Moon 5:23 PM MST (1/15) 7:09 AM MST (1/15)
Length of Visible Light 10h 30m
Length of Day
9h 29m
Full, 100% of the Moon is Illuminated
Jan 15
Full
Jan 15
Full
Jan 23
Last Quarter
Jan 30
New
Feb 6
First Quarter

Hourly Weather History & Observations

Time (MST) Temp. Windchill Dew Point Humidity Pressure Visibility Wind Dir Wind Speed Gust Speed Precip Events Conditions
12:02 AM 16.0 °F 10.4 °F 12.9 °F 88% 30.59 in 3.0 mi NE 3.5 mph - N/A   Clear
12:51 AM 21.0 °F - 19.0 °F 92% 30.67 in 7.0 mi Calm Calm - N/A   Clear
1:05 AM 16.0 °F 10.4 °F 14.0 °F 92% 30.58 in 1.5 mi Variable 3.5 mph - N/A   Partly Cloudy
1:07 AM 15.1 °F 7.7 °F 12.9 °F 91% 30.58 in 0.8 mi West 4.6 mph - N/A   Mist
1:51 AM 16.0 °F - 12.0 °F 84% 30.67 in 0.2 mi Calm Calm - N/A Fog Light Freezing Fog
2:51 AM 17.1 °F - 12.0 °F 81% 30.67 in 0.2 mi Calm Calm - N/A   Haze
3:51 AM 14.0 °F - 9.0 °F 80% 30.69 in 0.2 mi Calm Calm - N/A   Haze
4:51 AM 12.0 °F 4.1 °F 6.1 °F 77% 30.68 in 0.5 mi SW 4.6 mph - N/A   Haze
5:51 AM 12.0 °F - 6.1 °F 77% 30.69 in 0.2 mi Calm Calm - N/A   Haze
6:51 AM 10.9 °F - 5.0 °F 77% 30.70 in 0.2 mi Calm Calm - N/A   Haze
7:29 AM 10.9 °F - 5.0 °F 77% 30.55 in 1.8 mi Calm Calm - N/A   Haze
7:31 AM 10.9 °F - 5.0 °F 77% 30.55 in 3.0 mi Calm Calm - N/A   Haze
7:51 AM 10.0 °F 1.8 °F 3.9 °F 76% 30.71 in 3.0 mi WNW 4.6 mph - N/A   Haze
7:53 AM 9.0 °F 0.6 °F 3.0 °F 77% 30.56 in 1.8 mi NW 4.6 mph - N/A   Haze
8:00 AM 9.0 °F -0.9 °F 3.9 °F 80% 30.56 in 0.2 mi West 5.8 mph - N/A   Haze
8:51 AM 12.9 °F 3.8 °F 8.1 °F 81% 30.74 in 0.2 mi South 5.8 mph - N/A   Haze
9:51 AM 17.1 °F - 12.0 °F 81% 30.74 in 0.5 mi Calm Calm - N/A   Haze
10:08 AM 18.0 °F - 12.0 °F 78% 30.59 in 1.2 mi Calm Calm - N/A   Haze
10:17 AM 18.0 °F - 12.0 °F 78% 30.60 in 0.5 mi Calm Calm - N/A   Haze
10:51 AM 19.9 °F - 16.0 °F 85% 30.74 in 1.0 mi Calm Calm - N/A   Mist
10:56 AM 19.0 °F - 16.0 °F 88% 30.59 in 1.8 mi Calm Calm - N/A   Scattered Clouds
11:01 AM 19.9 °F - 16.0 °F 85% 30.59 in 2.0 mi Calm Calm - N/A   Partly Cloudy
11:13 AM 21.9 °F 17.2 °F 16.0 °F 78% 30.58 in 3.0 mi East 3.5 mph - N/A   Haze
11:51 AM 21.0 °F - 17.1 °F 85% 30.72 in 3.0 mi Calm Calm - N/A   Clear
12:00 PM 21.0 °F 13.4 °F 17.1 °F 85% 30.57 in 2.5 mi West 5.8 mph - N/A   Clear
12:05 PM 21.0 °F 16.2 °F 17.1 °F 85% 30.56 in 3.0 mi West 3.5 mph - N/A   Clear
12:14 PM 21.9 °F 17.2 °F 18.0 °F 85% 30.56 in 2.0 mi WNW 3.5 mph - N/A   Clear
12:16 PM 21.9 °F 17.2 °F 18.0 °F 85% 30.56 in 1.8 mi WNW 3.5 mph - N/A   Partly Cloudy
12:26 PM 24.1 °F - 19.9 °F 84% 30.55 in 2.5 mi Calm Calm - N/A   Partly Cloudy
12:31 PM 24.1 °F - 19.9 °F 84% 30.54 in 3.0 mi Calm Calm - N/A   Partly Cloudy
12:51 PM 23.0 °F - 19.9 °F 88% 30.65 in 5.0 mi Calm Calm - N/A   Clear
1:51 PM 25.0 °F - 21.0 °F 85% 30.62 in 8.0 mi Calm Calm - N/A   Clear
2:51 PM 28.0 °F - 23.0 °F 81% 30.59 in 10.0 mi Calm Calm - N/A   Clear
3:51 PM 28.0 °F - 21.9 °F 78% 30.61 in 10.0 mi Calm Calm - N/A   Clear
4:51 PM 28.0 °F - 21.0 °F 75% 30.61 in 10.0 mi Calm Calm - N/A   Clear
5:51 PM 24.1 °F 19.7 °F 19.0 °F 81% 30.62 in 9.0 mi NE 3.5 mph - N/A   Clear
6:51 PM 19.0 °F 13.9 °F 16.0 °F 88% 30.63 in 6.0 mi NE 3.5 mph - N/A   Clear
7:51 PM 19.0 °F - 14.0 °F 81% 30.64 in 7.0 mi Calm Calm - N/A   Clear
8:51 PM 15.1 °F 9.4 °F 10.9 °F 84% 30.66 in 4.0 mi Variable 3.5 mph - N/A   Clear
9:51 PM 16.0 °F 7.4 °F 12.9 °F 88% 30.64 in 5.0 mi South 5.8 mph - N/A   Clear
10:51 PM 14.0 °F 6.5 °F 10.9 °F 88% 30.64 in 5.0 mi East 4.6 mph - N/A   Clear
11:25 PM 10.9 °F 2.9 °F 9.0 °F 92% 30.48 in 2.0 mi NW 4.6 mph - N/A   Clear
11:32 PM 10.0 °F 3.6 °F 8.1 °F 92% 30.48 in 2.0 mi Variable 3.5 mph - N/A   Partly Cloudy
11:41 PM 10.9 °F 2.9 °F 8.1 °F 88% 30.48 in 3.0 mi NNE 4.6 mph - N/A   Scattered Clouds
11:51 PM 12.9 °F 5.2 °F 10.0 °F 88% 30.64 in 3.0 mi NNE 4.6 mph - N/A   Mostly Cloudy